Other Surface Observations
Issued by NWS Tucson, AZ

Home | Current Version | Previous Version | Text Only | Print | Product List | Glossary On
Versions: 1 2 3 4 5 6 7 8 9 10 11 12 13 14 15 16 17 18 19 20 21 22 23 24 25 26 27 28 29 30 31 32 33 34 35 36 37 38 39 40 41 42 43 44 45 46 47 48 49 50
000
SXUS55 KTWC 240015
OSOTWC

WEATHER ROUNDUP FOR SOUTHEAST ARIZONA
NATIONAL WEATHER SERVICE TUCSON AZ
515 PM MST FRI FEB 23 2018

AZZ504>506-514-240115-
LOCATION       SKY/WX    TMP DP  RH WIND       PRES   REMARKS
TUCSON         SUNNY     63  13  14 W17G26    29.99S
DAVIS-MONTHAN  SUNNY     63  13  14 W15G23    29.97S
CHILDRENS PARK N/A      N/A N/A  19 W4                PIMA CO DEQ
ALVERNON/22ND  N/A       63 N/A N/A W8                PIMA CO DEQ
CHERRY/GLENN   N/A       64 N/A N/A W7                PIMA CO DEQ
TANGERINE      N/A       62 N/A N/A W11               PIMA CO DEQ
CONTL RANCH    N/A       63  18  17 W11               PIMA CO DEQ
GRANT/1ST      N/A       62  20  20 W5                PIMA CO DEQ
CRAYCROFT/22ND N/A       63  21  20 W10               PIMA CO DEQ
GOLFLINKS/KOLB N/A       63  21  20 W9                PIMA CO DEQ
AJO/12TH       N/A       63  21  20 W8                PIMA CO DEQ
FAIRGROUNDS    N/A       62 N/A N/A W18               PIMA CO DEQ
SAGUARO        N/A       63  20  19 NW3G16            *SABINO CYN
SAN CARLOS     N/A       57  20  24 W15G21            *SAN CARLOS
GREEN VALLEY   N/A       64  17  16 SW14              PIMA CO DEQ
HORSE CAMP CYN N/A       54  19  25 SW21G32           *ARAVAIPA CYN
RINCON MTNS    N/A       38  13  35 SW7G17            *NR MANNING CAMP
$$

AZZ509>511-240115-
LOCATION       SKY/WX    TMP DP  RH WIND       PRES   REMARKS
SAFFORD        SUNNY     60  17  18 NW13      29.90F
STRAY HORSE    N/A       38   8  29 W9G25             *
TRAIL CABIN    N/A       48  12  23 W5G17             *N OF GRANVILLE
BLACK HILLS    NOT AVBL
DRY LAKE       N/A       39  15  37 W8G16             *NATANES MTNS
NOON CREEK     N/A       55   8  15 SW6G18            *PINALENO MTNS
COLUMBINE      N/A       29  15  55 SW11G28           *PINALENO MTNS
GUTHRIE        N/A       48  12  23 SW21G30           *SW OF GUTHRIE
$$

AZZ502-503-513-240115-
LOCATION       SKY/WX    TMP DP  RH WIND       PRES   REMARKS
NOGALES        SUNNY     58  12  16 SW17G25   30.02S
SELLS          N/A       60  12  15 NE13G22           *
SASABE         N/A       60  17  19 SW15G24           *ALTAR VLY
HOPKINS        N/A       47  12  24 W12G23            *SANTA RITA MTNS
CARR CYN       N/A       52  10  18 SW4G18            *W OF HEREFORD
$$

AZZ507-508-512-240115-
LOCATION       SKY/WX    TMP DP  RH WIND       PRES   REMARKS
SIERRA VISTA   SUNNY     56  12  17 SW22      30.01S
DOUGLAS        SUNNY     62  14  15 SW18G30   29.99S
EMPIRE MTNS    NOT AVBL
MULESHOE RANCH N/A       55  17  22 W10G22            *PRESERVE
HEADQUARTERS   N/A       57   7  13 SW8G23            *CHIRICAHUA MTNS
$$

.............................NOTES.............................
THIS IS AN AUTOMATED COLLECTIVE WITH MINIMAL QUALITY CONTROL.
PIMA CO DEQ SITES HAVE NONSTANDARD WIND SENSOR HEIGHTS.
PIMA CO DEQ SITES DO NOT REPORT WIND GUSTS.
* INDICATES WIND SENSORS LOCATED AT 20 FEET INSTEAD OF 33 FEET.
..............................KEY..............................
SKY/WX - SKY CONDITION/WEATHER
TMP    - TEMPERATURE IN FAHRENHEIT
DP     - DEWPOINT IN FAHRENHEIT
RH     - RELATIVE HUMIDITY IN PERCENT
WIND   - DIRECTION AND SPEED IN MILES PER HOUR (MPH)
VRB    - VARIABLE WIND DIRECTION
PRES   - MEAN SEA LEVEL PRESSURE IN INCHES OF MERCURY
         F - FALLING PRESSURE   R - RISING PRESSURE
         S - STEADY PRESSURE
VSB    - VISIBILITY IN MILES
HX     - HEAT INDEX IN FAHRENHEIT
WCI    - WIND CHILL INDEX IN FAHRENHEIT
N/A    - NOT AVAILABLE
AFB    - AIR FORCE BASE
         DAVIS-MONTHAN IS DAVIS-MONTHAN AIR FORCE BASE
CYN    - CANYON
MTNS   - MOUNTAINS
NCA    - NATIONAL CONSERVATION AREA
NR     - NEAR
VLY    - VALLEY
CONTL  - CONTINENTAL
PIMA CO DEQ - PIMA COUNTY DEPT OF ENVIRONMENTAL QUALITY



USA.gov is the U.S. government's official web portal to all federal, state and local government web resources and services.